Weather History for Quelimane, Mozambique

Change the Weather History Date:

Friday, January 18, 2013

  Actual Average Record
Temperature  
Mean Temperature 84 °F -  
Max Temperature 92 °F - - ()
Min Temperature 76 °F - - ()
Cooling Degree Days 19    
Growing Degree Days 34 (Base 50)    
Moisture  
Dew Point 77 °F    
Average Humidity 83    
Maximum Humidity 100    
Minimum Humidity 57    
Precipitation  
Precipitation 0.03 in - - ()
Sea Level Pressure  
Sea Level Pressure 29.84 in    
Wind  
Wind Speed 2 mph ()    
Max Wind Speed 8 mph    
Max Gust Speed -    
Visibility 8.4 miles    
Events Fog    
T = Trace of Precipitation, MM = Missing Value Source: Averaged Metar Reports

Daily Weather History Graph

Daily Weather History Graph

Search for Another Location

Airport:

Trip Planner

Search our weather history database for the weather conditions in past years. The results will help you decide how hot, cold, wet, or windy it might be!

Date:

Astronomy

Jan. 18, 2013 Rise Set
Actual Time 5:11 AM CAT 6:14 PM CAT
Civil Twilight 4:47 AM CAT 6:37 PM CAT
Nautical Twilight 4:19 AM CAT 7:05 PM CAT
Astronomical Twilight 3:51 AM CAT 7:34 PM CAT
Moon 11:11 AM CAT 11:01 PM CAT
Length of Visible Light 13h 50m
Length of Day
13h 03m
Waxing Crescent, 44% of the Moon is Illuminated
Jan 18
Waxing Crescent
Jan 19
First Quarter
Jan 27
Full
Feb 3
Last Quarter
Feb 10
New

Hourly Weather History & Observations

Time (CAT) Temp. Heat Index Dew Point Humidity Pressure Visibility Wind Dir Wind Speed Gust Speed Precip Events Conditions
12:00 AM 80.6 °F 88.1 °F 78.8 °F 94% 29.89 in 6.2 mi Calm Calm - N/A   Partly Cloudy
1:00 AM 78.8 °F - 77.0 °F 94% 29.86 in 6.2 mi Calm Calm - N/A   Partly Cloudy
2:00 AM 78 °F - 77 °F 94% 29.87 in 19 mi Calm Calm - -   Partly Cloudy
2:00 AM 77.0 °F - 77.0 °F 100% 29.86 in 6.2 mi Calm Calm - N/A   Scattered Clouds
4:00 AM 77.0 °F - 75.2 °F 94% 29.86 in 0.6 mi Calm Calm - N/A Fog Fog
5:00 AM 77 °F - 77 °F 98% 29.88 in 1 mi Calm Calm - - Fog Heavy Fog
5:00 AM 77.0 °F - 77.0 °F 100% 29.86 in 0.6 mi Calm Calm - N/A Fog Fog
6:00 AM 77.0 °F - 77.0 °F 100% 29.89 in 6.2 mi Calm Calm - N/A   Mostly Cloudy
7:00 AM 78.8 °F - 77.0 °F 94% 29.89 in 6.2 mi WNW 3.5 mph - N/A   Mostly Cloudy
8:00 AM 81 °F - 78 °F 88% 29.92 in 19 mi West 2.3 mph - -   Partly Cloudy
8:00 AM 80.6 °F 88.1 °F 78.8 °F 94% 29.89 in 6.2 mi West 2.3 mph - N/A   Mostly Cloudy
9:00 AM 84.2 °F 94.1 °F 77.0 °F 79% 29.89 in 6.2 mi Variable 2.3 mph - N/A   Mostly Cloudy
10:00 AM 86.0 °F 96.9 °F 77.0 °F 74% 29.89 in 6.2 mi Variable 2.3 mph - N/A   Mostly Cloudy
11:00 AM 89 °F - 76 °F 57% 29.88 in 19 mi West 4.6 mph - -   Mostly Cloudy
11:00 AM 89.6 °F 99.8 °F 75.2 °F 62% 29.86 in 6.2 mi West 4.6 mph - N/A   Mostly Cloudy
12:00 PM 91.4 °F 105.1 °F 77.0 °F 63% 29.83 in 6.2 mi WSW 4.6 mph - N/A   Mostly Cloudy
2:00 PM 90 °F - 78 °F 60% 29.81 in 19 mi NNE 2.3 mph - -   Mostly Cloudy
2:00 PM 89.6 °F 102.2 °F 77.0 °F 66% 29.80 in 6.2 mi NNE 2.3 mph - N/A   Mostly Cloudy
3:00 PM 84.2 °F 96.1 °F 78.8 °F 84% 29.77 in 6.2 mi East 3.5 mph - N/A   Light Drizzle
4:00 PM 86.0 °F 101.9 °F 80.6 °F 84% 29.77 in 6.2 mi East 4.6 mph - N/A   Partly Cloudy
5:00 PM 87.8 °F 99.7 °F 77.0 °F 70% 29.77 in 6.2 mi SE 6.9 mph - N/A   Partly Cloudy
6:00 PM 84.2 °F 94.1 °F 77.0 °F 79% 29.77 in 6.2 mi SE 8.1 mph - N/A   Partly Cloudy
7:00 PM 82.4 °F 89.5 °F 75.2 °F 79% 29.77 in 6.2 mi ESE 4.6 mph - N/A   Partly Cloudy
8:00 PM 82 °F - 76 °F 76% 29.81 in 19 mi SE 5.8 mph - -   Partly Cloudy
8:00 PM 82.4 °F 89.5 °F 75.2 °F 79% 29.80 in 6.2 mi SE 5.8 mph - N/A   Partly Cloudy
9:00 PM 80.6 °F 86.2 °F 75.2 °F 84% 29.80 in 6.2 mi ESE 2.3 mph - N/A   Partly Cloudy
10:00 PM 80.6 °F 86.2 °F 75.2 °F 84% 29.83 in 6.2 mi ESE 2.3 mph - N/A   Partly Cloudy
11:00 PM 79 °F - 76 °F 89% 29.87 in 19 mi Calm Calm - -  
11:00 PM 78.8 °F - 77.0 °F 94% 29.86 in - Calm Calm - N/A   Clear